BCS578 LGTS-LGSK

Flight info

Callsign BCS578
Flight time 0h 27m
Altitude 17000
Route LEKPO UL617 IBIDI
Aircraft E195/M-SDE3GILORVW/S

Departure

Time 2026-05-07 14:23
Airport Thessaloniki Macedonia International Airport (LGTS)

Arrival

Time 2026-05-07 14:50
Airport Skiathos Island National Airport (LGSK)
Time Latitude Longitude Altitude Speed Heading
2026-05-07 14:11 40.52143 22.98224 25 ft 0 kts 101°
2026-05-07 14:16 40.52143 22.98225 25 ft 0 kts 102°
2026-05-07 14:16 40.52139 22.98230 25 ft 1 kts 129°
2026-05-07 14:16 40.52127 22.98230 27 ft 3 kts 182°
2026-05-07 14:17 40.52102 22.98221 25 ft 5 kts 211°
2026-05-07 14:17 40.52091 22.98176 27 ft 6 kts 264°
2026-05-07 14:17 40.52097 22.98102 25 ft 11 kts 280°
2026-05-07 14:17 40.52083 22.97990 27 ft 15 kts 247°
2026-05-07 14:18 40.52054 22.97897 28 ft 18 kts 243°
2026-05-07 14:18 40.51999 22.97733 27 ft 22 kts 249°
2026-05-07 14:18 40.51934 22.97570 25 ft 20 kts 236°
2026-05-07 14:18 40.51909 22.97410 27 ft 18 kts 285°
2026-05-07 14:19 40.51849 22.97316 25 ft 16 kts 178°
2026-05-07 14:19 40.51744 22.97346 27 ft 16 kts 167°
2026-05-07 14:19 40.51637 22.97381 27 ft 16 kts 166°
2026-05-07 14:19 40.51526 22.97414 27 ft 17 kts 167°
2026-05-07 14:20 40.51400 22.97453 28 ft 21 kts 167°
2026-05-07 14:20 40.51242 22.97507 28 ft 26 kts 165°
2026-05-07 14:20 40.51054 22.97566 29 ft 26 kts 167°
2026-05-07 14:20 40.50967 22.97527 29 ft 13 kts 246°
2026-05-07 14:21 40.50963 22.97417 29 ft 8 kts 297°
2026-05-07 14:21 40.50985 22.97402 29 ft 0 kts 346°
2026-05-07 14:21 40.50987 22.97402 29 ft 1 kts 347°
2026-05-07 14:22 40.50996 22.97399 29 ft 5 kts 349°
2026-05-07 14:22 40.51260 22.97318 30 ft 73 kts 347°
2026-05-07 14:22 40.51974 22.97086 23 ft 137 kts 347°
2026-05-07 14:22 40.53039 22.96766 305 ft 163 kts 347°
2026-05-07 14:23 40.54103 22.96366 1141 ft 162 kts 336°
2026-05-07 14:23 40.55248 22.95657 1290 ft 202 kts 329°
2026-05-07 14:23 40.56491 22.94580 1712 ft 229 kts 327°
2026-05-07 14:23 40.57843 22.93395 2544 ft 236 kts 324°
2026-05-07 14:24 40.59149 22.92043 3391 ft 247 kts 320°
2026-05-07 14:24 40.60481 22.90519 4078 ft 262 kts 317°
2026-05-07 14:24 40.61877 22.88911 4948 ft 269 kts 317°
2026-05-07 14:24 40.63323 22.87338 5938 ft 270 kts 321°
2026-05-07 14:25 40.64841 22.85867 6913 ft 272 kts 321°
2026-05-07 14:25 40.66360 22.84372 7825 ft 273 kts 319°
2026-05-07 14:25 40.67540 22.82462 8677 ft 269 kts 290°
2026-05-07 14:25 40.67809 22.80065 9567 ft 267 kts 261°
2026-05-07 14:26 40.67081 22.77827 10368 ft 274 kts 234°
2026-05-07 14:26 40.65547 22.76257 10774 ft 298 kts 206°
2026-05-07 14:26 40.63444 22.75828 11357 ft 319 kts 179°
2026-05-07 14:26 40.61300 22.76783 12083 ft 336 kts 151°
2026-05-07 14:27 40.59600 22.78953 12874 ft 349 kts 128°
2026-05-07 14:27 40.58366 22.81746 13668 ft 358 kts 118°
2026-05-07 14:27 40.57300 22.84671 14810 ft 348 kts 117°
2026-05-07 14:27 40.56264 22.87522 15775 ft 350 kts 117°
2026-05-07 14:28 40.55173 22.90468 16254 ft 365 kts 118°
2026-05-07 14:28 40.53957 22.93439 16908 ft 372 kts 124°
2026-05-07 14:28 40.52541 22.96375 17105 ft 391 kts 126°
2026-05-07 14:28 40.51049 22.99386 17141 ft 403 kts 126°
2026-05-07 14:29 40.49399 23.02367 17157 ft 404 kts 136°
2026-05-07 14:29 40.47189 23.04592 17159 ft 398 kts 156°
2026-05-07 14:29 40.44602 23.05696 17181 ft 389 kts 176°
2026-05-07 14:29 40.41909 23.05891 17107 ft 389 kts 182°
2026-05-07 14:30 40.39222 23.06083 17087 ft 385 kts 181°
2026-05-07 14:30 40.36538 23.06168 17041 ft 385 kts 185°
2026-05-07 14:30 40.33852 23.06177 16942 ft 386 kts 181°
2026-05-07 14:30 40.31173 23.06584 16987 ft 389 kts 174°
2026-05-07 14:31 40.28558 23.07340 17047 ft 393 kts 166°
2026-05-07 14:31 40.25974 23.08560 17123 ft 396 kts 162°
2026-05-07 14:31 40.23448 23.10059 17118 ft 399 kts 158°
2026-05-07 14:31 40.20955 23.11664 17125 ft 399 kts 158°
2026-05-07 14:32 40.18461 23.13275 17120 ft 399 kts 158°
2026-05-07 14:32 40.15940 23.14782 17114 ft 397 kts 162°
2026-05-07 14:32 40.13358 23.16054 17108 ft 395 kts 167°
2026-05-07 14:32 40.10699 23.16857 17134 ft 393 kts 170°
2026-05-07 14:33 40.08066 23.17868 17138 ft 395 kts 166°
2026-05-07 14:33 40.05471 23.19067 17095 ft 397 kts 164°
2026-05-07 14:33 40.02916 23.20323 17101 ft 396 kts 163°
2026-05-07 14:33 40.00335 23.21604 17106 ft 397 kts 163°
2026-05-07 14:34 39.97749 23.22886 17102 ft 397 kts 163°
2026-05-07 14:34 39.95168 23.24165 17100 ft 397 kts 163°
2026-05-07 14:34 39.92582 23.25442 17115 ft 397 kts 163°
2026-05-07 14:34 39.89993 23.26717 17111 ft 397 kts 163°
2026-05-07 14:35 39.87407 23.27991 17110 ft 397 kts 163°
2026-05-07 14:35 39.84821 23.29262 17088 ft 397 kts 163°
2026-05-07 14:35 39.82303 23.30503 16747 ft 385 kts 163°
2026-05-07 14:35 39.79848 23.31714 16500 ft 370 kts 164°
2026-05-07 14:36 39.77403 23.32908 15972 ft 382 kts 164°
2026-05-07 14:36 39.74895 23.34130 15436 ft 387 kts 163°
2026-05-07 14:36 39.72373 23.35365 14889 ft 386 kts 163°
2026-05-07 14:36 39.69866 23.36591 14381 ft 383 kts 163°
2026-05-07 14:37 39.67376 23.37803 13874 ft 381 kts 163°
2026-05-07 14:37 39.62490 23.40178 12874 ft 374 kts 163°
2026-05-07 14:37 39.60068 23.41354 12385 ft 370 kts 163°
2026-05-07 14:38 39.57659 23.42523 11894 ft 367 kts 163°
2026-05-07 14:38 39.55278 23.43678 11413 ft 364 kts 162°
2026-05-07 14:38 39.52917 23.44822 10932 ft 361 kts 162°
2026-05-07 14:38 39.50566 23.45960 10358 ft 360 kts 162°
2026-05-07 14:39 39.48228 23.47091 9877 ft 354 kts 162°
2026-05-07 14:39 39.45941 23.48198 9409 ft 346 kts 162°
2026-05-07 14:39 39.43713 23.49277 8950 ft 338 kts 161°
2026-05-07 14:39 39.41529 23.50331 8502 ft 330 kts 161°
2026-05-07 14:40 39.39416 23.51351 8003 ft 326 kts 161°
2026-05-07 14:40 39.37316 23.52365 7612 ft 318 kts 161°
2026-05-07 14:40 39.35259 23.53359 7187 ft 313 kts 161°
2026-05-07 14:40 39.33232 23.54335 6777 ft 309 kts 161°
2026-05-07 14:41 39.31222 23.55304 6361 ft 307 kts 161°
2026-05-07 14:41 39.29231 23.56265 5957 ft 305 kts 161°
2026-05-07 14:41 39.27270 23.57211 5526 ft 292 kts 161°
2026-05-07 14:41 39.25423 23.58101 5156 ft 274 kts 161°
2026-05-07 14:42 39.23670 23.58946 4825 ft 265 kts 161°
2026-05-07 14:42 39.21942 23.59775 4499 ft 266 kts 161°
2026-05-07 14:42 39.20229 23.60596 4260 ft 265 kts 161°
2026-05-07 14:42 39.18459 23.61202 4162 ft 265 kts 180°
2026-05-07 14:43 39.16670 23.60756 4131 ft 256 kts 201°
2026-05-07 14:43 39.15108 23.59832 3849 ft 241 kts 207°
2026-05-07 14:43 39.13655 23.58875 3654 ft 224 kts 206°
2026-05-07 14:43 39.12295 23.58001 3658 ft 217 kts 208°
2026-05-07 14:44 39.10967 23.57084 3713 ft 217 kts 209°
2026-05-07 14:44 39.09661 23.56183 3688 ft 208 kts 208°
2026-05-07 14:44 39.08420 23.55346 3597 ft 196 kts 207°
2026-05-07 14:44 39.07236 23.54565 3524 ft 188 kts 207°
2026-05-07 14:45 39.06073 23.53804 3476 ft 187 kts 207°
2026-05-07 14:45 39.04903 23.53040 3394 ft 190 kts 207°
2026-05-07 14:45 39.03714 23.52262 3211 ft 193 kts 207°
2026-05-07 14:45 39.02643 23.51281 3001 ft 188 kts 235°
2026-05-07 14:46 39.02359 23.49735 2816 ft 183 kts 283°
2026-05-07 14:46 39.03083 23.48448 2694 ft 184 kts 333°
2026-05-07 14:46 39.04334 23.48117 2551 ft 187 kts 358°
2026-05-07 14:46 39.05628 23.48226 2353 ft 186 kts 12°
2026-05-07 14:47 39.06907 23.48454 2137 ft 185 kts
2026-05-07 14:47 39.08158 23.48313 1945 ft 176 kts 353°
2026-05-07 14:47 39.09333 23.48163 1711 ft 162 kts
2026-05-07 14:47 39.10378 23.48338 1539 ft 141 kts 12°
2026-05-07 14:48 39.11322 23.48590 1336 ft 139 kts 12°
2026-05-07 14:48 39.12293 23.48816 1170 ft 141 kts 11°
2026-05-07 14:48 39.13256 23.49022 999 ft 144 kts
2026-05-07 14:48 39.14255 23.49169 845 ft 143 kts
2026-05-07 14:49 39.15214 23.49324 513 ft 135 kts 11°
2026-05-07 14:49 39.16090 23.49651 246 ft 131 kts 19°
2026-05-07 14:49 39.16970 23.50040 50 ft 134 kts 19°
2026-05-07 14:49 39.17730 23.50377 38 ft 89 kts 19°
2026-05-07 14:50 39.18185 23.50579 52 ft 59 kts 19°
2026-05-07 14:50 39.18425 23.50687 58 ft 18 kts 18°
2026-05-07 14:50 39.18499 23.50745 55 ft 11 kts 12°
2026-05-07 14:50 39.18500 23.50700 52 ft 9 kts 184°
2026-05-07 14:51 39.18423 23.50685 58 ft 15 kts 199°
2026-05-07 14:51 39.18298 23.50630 55 ft 23 kts 197°
2026-05-07 14:51 39.18117 23.50551 49 ft 32 kts 199°
2026-05-07 14:51 39.17944 23.50454 38 ft 20 kts 237°
2026-05-07 14:52 39.17930 23.50397 41 ft 0 kts 259°
2026-05-07 14:52 39.17943 23.50368 39 ft 6 kts 328°
2026-05-07 14:52 39.17973 23.50339 38 ft 6 kts 278°
2026-05-07 14:52 39.17985 23.50286 37 ft 6 kts 289°
2026-05-07 14:53 39.17989 23.50275 38 ft 1 kts 289°
2026-05-07 14:53 39.17989 23.50274 38 ft 0 kts 289°